Weather Service Report


443 
ASUS42 KRAH 241010
RWRRAH
NORTH CAROLINA WEATHER ROUNDUP
NATIONAL WEATHER SERVICE RALEIGH NC
500 AM EST FRI FEB 24 2017

NOTE: "FAIR" INDICATES FEW OR NO CLOUDS BELOW 12,000 FEET WITH NO
SIGNIFICANT WEATHER AND/OR OBSTRUCTIONS TO VISIBILITY.

NCZ001-053-055-056-065-067-241100-
WESTERN NORTH CAROLINA
  
CITY           SKY/WX    TMP DP  RH WIND       PRES   REMARKS
ASHEVILLE      CLEAR     43  40  89 CALM      29.94R                  
JEFFERSON      PTCLDY    48  45  90 CALM      29.93F                  
MORGANTON      FOG       44  44 100 CALM      29.95F VSB 1/4          
HICKORY        CLEAR     51  49  92 CALM      29.91S                  
RUTHERFORDTON  CLEAR     47  47 100 CALM      29.92S                  
MOUNT AIRY     CLEAR     52  50  92 CALM      29.93S                  
BOONE          FOG       37  37 100 CALM      29.95S VSB 1/2          
$$
 
NCZ021-022-025-041-071-084-088-241100-
CENTRAL NORTH CAROLINA
  
CITY           SKY/WX    TMP DP  RH WIND       PRES   REMARKS
CHARLOTTE      PTCLDY    54  52  93 CALM      29.91S                  
GREENSBORO     CLEAR     53  52  96 CALM      29.91R                  
WINSTON-SALEM  CLEAR     56  52  86 CALM      29.93R                  
RALEIGH-DURHAM PTCLDY    50  49  96 CALM      29.92F                  
FORT BRAGG     CLEAR     49  49  98 CALM      29.90S                  
FAYETTEVILLE   CLEAR     54  52  93 CALM      29.91R FOG              
BURLINGTON     CLEAR     49  48  97 CALM      29.90F                  
LAURINBURG     CLEAR     50  49  96 E3        29.91S                  
$$
 
NCZ011-015-027-028-043-044-047-080-103-241100-
NORTHEASTERN NORTH CAROLINA
  
CITY           SKY/WX    TMP DP  RH WIND       PRES   REMARKS
ROCKY MT-WILSO FOG       49  49 100 CALM      29.93R VSB 3/4          
GREENVILLE     FOG       48  48 100 CALM      29.94S VSB 1/2          
WASHINGTON     PTCLDY    55  55  99 CALM      29.92S                  
ELIZABETH CITY CLEAR     54  53  97 E5        29.93F                  
MANTEO         CLOUDY    59  59 100 CALM      29.95R                  
CAPE HATTERAS  CLOUDY    63  60  90 N3        29.92S                  
$$
 
NCZ078-087-090-091-093-098-101-241100-
SOUTHEASTERN NORTH CAROLINA
  
CITY           SKY/WX    TMP DP  RH WIND       PRES   REMARKS
LUMBERTON      LGT RAIN  52  51  97 CALM      29.90S                  
GOLDSBORO      CLEAR     52  52 100 CALM      29.90S                  
KINSTON        MOCLDY    51  51 100 CALM      29.92S FOG              
KENANSVILLE    FOG       50  48  93 CALM      29.91S VSB 3/4          
NEW BERN       FOG       53  53 100 CALM      29.92S VSB 1            
CHERRY POINT   NOT AVBL                                               
BEAUFORT       CLOUDY    60  58  92 NE6       29.91R                  
JACKSONVILLE   CLOUDY    57  57 100 CALM      29.90S                  
WILMINGTON     PTCLDY    54  54 100 NE3       29.88F FOG              
$$

  

Return to Home page


Western Regional Climate Center, wrcc@dri.edu